Content
SEND FEEDBACK

Daily
Averages
Monthly
Summary
United States of America

ENKA, NORTH CAROLINA


Home > North America > United States > North Carolina
Elevation: 2122 feet     Latitude: 35 33N     Longitude: 082 39W

WEATHER
 
SELECT A DAY
Number of Records: 225,800;   Date Range: 1/1/95 - 7/28/14
 
SHARE

PRINT THIS DATA

[ ← Previous Day ]
WEATHER ALMANAC - APRIL 30, 2013
[ Next Day → ]
[ °C ]   °F
Weather ElementAverageHighLow
Temperature55 °F72 °F (2:54 pm)48.2 °F (5:50 am)
Dewpoint51.2 °F57.2 °F (10:41 am)48 °F (5:54 am)
Humidity89.5 %100 % (2:12 am)49 % (1:54 pm)
Barometer30.07 in30.21 in (11:54 pm)29.98 in (1:54 am)
Wind Speed1.7 mph10.4 mph (5:54 pm)
Wind Gust17.3 mph (4:54 pm)
Weather ElementAverage
Visibility4.2 mi
Wind DirectionNNE (37.5 °)

Weather ElementTotal
Precipitation0.01 in
Heating Degree Days4.9 (Base 65)
Growing Degree Days10.1 (Base 50)
Averaged from 53 records on April 30, 2013
WEATHER CONDITIONS BREAKOUT
WIND DIRECTION BREAKOUT
WEATHER BY HOUR - APRIL 30, 2013
[ °C ]   °F
Local TimeTemperatureDewpointHumidityBarometerVisibilityWind DirectionWind SpeedGust SpeedPrecipitationEventsConditions
1:54 AM54.0 °F52.0 °F93 %29.98 in10.0 miCalmClear
2:12 AM51.8 °F51.8 °F100 %30.02 in2.5 miCalmPartly Cloudy
2:23 AM51.8 °F51.8 °F100 %30.02 in4.0 miCalmScattered Clouds
2:46 AM51.8 °F51.8 °F100 %30.02 in1.5 miCalmMostly Cloudy
2:54 AM52.0 °F51.1 °F97 %29.98 in1.2 miCalmMostly Cloudy
2:58 AM51.8 °F51.8 °F100 %30.02 in2.0 miCalmMostly Cloudy
3:00 AM51.8 °F51.8 °F100 %30.02 in1.2 miCalmMostly Cloudy
3:09 AM51.8 °F51.8 °F100 %30.02 in0.5 miCalmFogFog
3:19 AM51.8 °F51.8 °F100 %30.03 in0.2 miCalmFogFog
3:43 AM51.8 °F51.8 °F100 %30.03 in0.2 miCalmFogFog
3:54 AM51.1 °F51.1 °F100 %30.00 in0.2 miCalmFogFog
3:59 AM50.0 °F50.0 °F100 %30.04 in0.5 miCalmFogFog
4:29 AM50.0 °F50.0 °F100 %30.05 in1.0 miCalmMist
4:36 AM50.0 °F48.2 °F94 %30.05 in2.0 miCalmOvercast
4:41 AM50.0 °F48.2 °F94 %30.05 in1.5 miCalmOvercast
4:45 AM50.0 °F50.0 °F100 %30.05 in0.8 miCalmMist
4:54 AM50.0 °F48.9 °F96 %30.02 in0.5 miCalmFogFog
5:09 AM50.0 °F48.2 °F94 %30.06 in0.2 miCalmFogFog
5:50 AM48.2 °F48.2 °F100 %30.06 in0.2 miCalmFogFog
5:54 AM48.9 °F48.0 °F97 %30.03 in0.2 miCalmFogFog
5:57 AM48.2 °F48.2 °F100 %30.07 in0.5 miCalmFogFog
6:07 AM48.2 °F48.2 °F100 %30.07 in1.0 miCalmOvercast
6:12 AM48.2 °F48.2 °F100 %30.07 in2.5 miCalmOvercast
6:19 AM48.2 °F48.2 °F100 %30.07 in9.0 miCalmOvercast
6:30 AM48.2 °F48.2 °F100 %30.07 in2.5 miCalmOvercast
6:42 AM48.2 °F48.2 °F100 %30.08 in2.5 miCalmOvercast
6:54 AM48.9 °F48.9 °F100 %30.05 in0.2 miCalmFogFog
7:04 AM48.2 °F48.2 °F100 %30.09 in0.8 miSouth (180°)3.5 mphOvercast
7:06 AM48.2 °F48.2 °F100 %30.09 in1.5 miSouth (170°)3.5 mphOvercast
7:09 AM48.2 °F48.2 °F100 %30.09 in3.0 miCalmOvercast
7:54 AM50.0 °F50.0 °F100 %30.08 in10.0 miCalmOvercast
8:47 AM51.8 °F51.8 °F100 %30.12 in1.5 miSouth (170°)3.5 mphOvercast
8:50 AM51.8 °F51.8 °F100 %30.13 in0.8 miCalmOvercast
8:54 AM51.1 °F51.1 °F100 %30.09 in0.5 miCalmFogFog
9:13 AM53.6 °F53.6 °F100 %30.13 in0.2 miCalmFogFog
9:54 AM54.0 °F54.0 °F100 %30.09 in0.5 miCalmFogFog
10:03 AM55.4 °F55.4 °F100 %30.13 in1.5 miCalmOvercast
10:07 AM55.4 °F55.4 °F100 %30.13 in3.0 miSW (220°)3.5 mphOvercast
10:41 AM60.8 °F57.2 °F88 %30.13 in10.0 miSSE (160°)4.6 mphScattered Clouds
10:54 AM62.1 °F57.0 °F84 %30.08 in10.0 miSSE (160°)4.6 mphScattered Clouds
11:54 AM66.9 °F55.0 °F66 %30.07 in10.0 miVariable4.6 mphClear
12:54 PM69.1 °F50.0 °F51 %30.06 in10.0 miSouth (170°)6.9 mph0.01 inPartly Cloudy
1:54 PM71.1 °F51.1 °F49 %30.04 in10.0 miVariable5.8 mphPartly Cloudy
2:54 PM72.0 °F52.0 °F49 %30.03 in10.0 miVariable5.8 mphPartly Cloudy
3:54 PM70.0 °F51.1 °F51 %30.03 in10.0 miESE (110°)6.9 mphClear
4:54 PM70.0 °F54.0 °F57 %30.05 in10.0 miVariable6.9 mph17.3 mphMostly Cloudy
5:54 PM71.1 °F52.0 °F51 %30.06 in10.0 miSouth (170°)10.4 mphPartly Cloudy
6:54 PM69.1 °F52.0 °F54 %30.08 in10.0 miSE (130°)6.9 mphMostly Cloudy
7:54 PM66.0 °F54.0 °F65 %30.10 in10.0 miVariable5.8 mphMostly Cloudy
8:54 PM64.0 °F54.0 °F70 %30.12 in10.0 miCalmClear
9:54 PM62.6 °F53.6 °F72 %30.18 in10.0 miSE (130°)3.5 mphClear
10:54 PM59.0 °F54.0 °F83 %30.15 in10.0 miCalmMostly Cloudy
11:54 PM57.2 °F53.6 °F88 %30.21 in10.0 miSW (220°)3.5 mphPartly Cloudy
Hourly data recorded from KAVL, located miles away from Enka, North Carolina







STORIES FROM OUR PARTNERS